Lid_Strength_Index
1 0 -0 -1 -1 -1 -1 -1 -1 -1 -1 -1 -1 -1 -1 -1 -1 -1 -1 -1 -1 -1 -1 -1 -1 -1 -1 -1 -1 -1 -1 -1 -1 -1 -1 -1 -1 -1 -1 -1 -1 -0 -1
1 -0 -0 -0 -1 -1 -1 -1 -1 -1 -1 -1 -1 -1 -1 -1 -1 -1 -1 -1 -1 -1 -1 -1 -1 -1 -1 -1 -1 -1 -1 -1 -1 -1 -1 -1 -1 -1 -1 -1 -1 -1 -1
1 0 -0 -0 -1 -1 -1 -1 -1 -1 -1 -1 -1 -1 -1 -1 -1 -1 -1 -1 -1 -1 -1 -1 -1 -1 -1 -1 -1 -1 -1 -1 -1 -1 -1 0 0 -1 -1 -1 -1 -1 -1
0 0 -0 -1 -1 -1 -1 -1 -1 -1 -1 -1 -1 -1 -1 -1 -1 -1 -1 -1 -1 -1 -1 -1 -1 -1 -1 -1 -1 -1 -1 -1 -1 -1 0 2 1 -2 -1 -1 -1 -1 -1
0 0 -0 -0 -1 -1 -1 -1 -1 -1 -1 -1 -1 -1 -1 -1 -1 -1 -1 -1 -1 -1 -1 -1 -1 -1 -1 -1 -1 -2 -2 -1 -1 -0 2 2 3 1 -2 -1 -1 -1 -1
0 0 -0 -0 -0 -1 -1 -1 -1 -1 -1 -1 -1 -1 -1 -1 -1 -1 -1 -1 -1 -1 -1 -1 -1 -1 -1 -1 -2 -2 -2 -1 -1 1 1 1 2 -0 -1 -1 -1 -1 -1
1 0 -0 -0 -0 -1 -1 -1 -1 -1 -1 -1 -1 -1 -1 -1 -1 -1 -1 -1 -1 -1 -1 -1 -1 -1 -1 -2 -2 -2 -2 -1 0 1 1 1 3 -1 -1 -1 -1 -1 -2
1 0 0 -0 -0 -1 -1 -1 -1 -1 -1 -1 -1 -1 -1 -1 -1 -1 -1 -1 -1 -1 -1 -1 -1 -1 -2 -2 -2 -2 -1 -1 -0 0 0 0 -0 -1 -1 -1 -2 -1 -1
0 0 0 -0 -0 -1 -1 -1 -1 -1 -1 -1 -0 -1 -1 -1 -1 -1 -1 -1 -1 -1 -1 -1 -1 -2 -2 -2 -2 -2 -1 -1 1 0 -0 0 -1 -1 -1 -1 -1 -1 -1
1 1 0 0 0 0 0 -1 -1 -1 -1 -1 -1 -1 -1 -1 -1 -1 -1 -1 -1 -1 -1 -1 -1 -1 -2 -2 -1 -1 -1 -1 0 1 2 0 -1 -1 -1 -1 -1 -1 -1
2 2 1 0 0 -0 0 -0 -1 -1 -1 -1 -1 -1 -0 0 0 -0 -0 -1 -1 -1 -1 -1 -1 -1 -1 -1 -1 -1 -1 0 1 2 1 -1 -1 -1 -1 -1 -1 -1 -1
3 2 1 1 0 0 -0 0 0 -0 -0 -0 -0 0 -0 -0 0 -0 -0 -1 -1 -1 -1 -1 -1 -1 -1 0 0 -1 1 0 1 1 -0 -1 -1 -1 -1 -1 -1 -1 -1
2 2 2 2 1 0 0 -0 0 -0 -0 -0 -0 -0 -0 0 0 0 0 0 0 -0 0 0 0 0 0 0 0 2 2 1 2 -0 -0 -1 -1 -1 -1 -1 -1 -1 -1
3 2 2 2 2 1 0 0 0 1 1 0 -0 0 1 1 0 0 1 0 0 0 0 0 0 0 0 0 1 2 2 2 2 1 -0 -1 -1 -1 -1 -1 -1 -1 -1
3 2 2 3 2 2 2 0 0 0 0 0 0 -0 1 0 1 2 2 1 0 1 1 1 1 1 1 1 2 1 2 3 1 1 0 -1 -1 -1 -1 -1 -1 -1 -0
3 4 2 2 2 3 2 1 1 0 0 0 -0 -0 1 0 1 2 2 1 1 0 0 1 2 2 2 2 2 1 1 2 2 1 1 0 -1 -1 -1 -1 -1 -1 -1
7 5 2 2 2 3 2 2 1 1 0 0 0 -0 -0 0 1 2 1 2 1 1 1 1 2 2 2 2 2 1 2 1 2 2 2 2 0 -1 -1 -2 -1 -1 -1
7 4 1 1 2 2 2 2 2 2 2 2 2 1 1 0 1 2 1 1 1 1 1 2 2 2 2 2 2 1 1 1 1 2 2 3 2 0 -1 -2 -2 -1 -0
6 5 3 2 2 2 2 2 2 3 2 3 2 2 2 1 1 2 1 1 1 1 2 2 2 2 3 2 2 2 1 1 2 2 3 3 3 2 1 -1 -2 -1 0
6 5 3 2 1 3 3 3 3 2 2 2 1 1 1 1 1 2 1 1 1 2 2 3 2 2 3 2 2 3 2 2 3 3 3 3 3 2 2 1 1 1 1
5 6 4 3 2 3 3 3 3 3 3 3 2 1 1 1 1 1 1 2 1 2 2 3 2 2 3 3 4 5 3 3 3 3 3 4 5 4 3 3 3 4 3
4 5 5 2 2 2 3 3 3 3 3 3 2 1 1 1 1 1 1 2 1 2 3 2 2 3 4 4 5 7 5 4 7 7 7 7 8 5 5 5 6 5 5
5 4 5 3 2 2 2 2 2 3 3 3 3 4 2 1 1 1 1 1 2 2 2 2 1 3 5 6 6 6 8 7 8 8 9 8 7 7 7 7 6 7 7
5 4 4 3 2 2 1 2 3 3 4 3 3 3 3 1 1 1 0 0 1 1 2 1 1 3 4 6 6 5 7 8 9 9 8 9 8 8 9 8 8 8 8
5 4 3 2 2 2 2 3 4 3 3 3 2 2 2 2 1 0 1 1 1 1 2 1 1 3 4 5 5 7 7 9 9 9 10 11 10 9 9 9 10 9 9
4 4 3 3 4 4 4 3 3 3 3 3 3 3 3 2 1 1 1 1 2 1 1 1 2 3 5 5 5 6 7 8 10 10 11 12 12 11 10 10 10 10 10